GW4056 Weather Reports


Display with metric or nautical units.
time (UTC)temp
F
wind
direction
speed
MPH
gust
MPH
rain 1hr
in
rain 24hr
in
rain mn
in
humidity
%
barometer
mb
20260505051524 59 210 2.0 8.0 0.00 0.00 0.00 71 1011.2
20260505041513 59 183 3.0 10.0 0.00 0.00 0.00 67 1011.6
20260505040010 59 168 3.0 9.0 0.00 0.00 0.00 66 1011.6
20260505034506 59 195 3.0 9.0 0.00 0.00 0.00 66 1011.6
20260505033034 59 217 3.0 8.0 0.00 0.00 0.00 66 1011.7
20260505031523 59 196 4.0 7.0 0.00 0.00 0.00 66 1011.9
20260505030022 59 231 4.0 8.0 0.00 0.00 0.00 65 1011.9
20260505024527 59 207 3.0 9.0 0.00 0.00 0.00 65 1011.9
20260505023020 59 170 2.0 7.0 0.00 0.00 0.00 65 1012.1
20260505021514 59 195 2.0 7.0 0.00 0.00 0.00 65 1012.1
20260505020025 60 200 4.0 7.0 0.00 0.00 0.00 63 1012.2
20260505014534 59 213 2.0 6.0 0.00 0.00 0.00 62 1012.1
20260505013004 60 199 1.0 10.0 0.00 0.00 0.00 59 1011.9
20260505011523 61 214 3.0 9.0 0.00 0.00 0.00 57 1011.8
20260505010022 62 195 3.0 9.0 0.00 0.00 0.00 54 1011.6
20260505004521 62 207 5.0 10.0 0.00 0.00 0.00 52 1011.4
20260505003016 63 186 2.0 10.0 0.00 0.00 0.00 51 1011.3
20260505001510 64 139 3.0 10.0 0.00 0.00 0.00 50 1011.0
20260505000013 65 146 3.0 11.0 0.00 0.00 0.00 48 1010.6
20260504234505 66 182 6.0 13.0 0.00 0.00 0.00 47 1010.4
20260504233028 67 114 6.0 10.0 0.00 0.00 0.00 46 1010.2
20260504231523 68 200 5.0 12.0 0.00 0.00 0.00 45 1010.1
20260504230024 69 248 3.0 12.0 0.00 0.00 0.00 44 1010.0
20260504224533 71 207 4.0 13.0 0.00 0.00 0.00 39 1010.0
20260504223002 73 136 2.0 10.0 0.00 0.00 0.00 31 1009.7
20260504221503 73 262 4.0 11.0 0.00 0.00 0.00 30 1009.8
20260504220002 73 281 2.0 12.0 0.00 0.00 0.00 31 1009.9
20260504214501 73 229 5.0 15.0 0.00 0.00 0.00 31 1009.9
20260504213001 73 267 7.0 16.0 0.00 0.00 0.00 29 1010.0
20260504211506 73 264 6.0 18.0 0.00 0.00 0.00 31 1010.0
20260504210001 73 207 4.0 22.0 0.00 0.00 0.00 30 1009.9
20260504204502 73 253 6.0 10.0 0.00 0.00 0.00 30 1010.0
20260504203002 73 278 4.0 11.0 0.00 0.00 0.00 31 1009.8
20260504201503 73 210 5.0 10.0 0.00 0.00 0.00 31 1010.0
20260504200002 73 155 3.0 13.0 0.00 0.00 0.00 31 1010.0
20260504194502 72 282 5.0 13.0 0.00 0.00 0.00 31 1010.2
20260504193002 72 193 6.0 14.0 0.00 0.00 0.00 30 1010.5
20260504191502 71 201 5.0 17.0 0.00 0.00 0.00 31 1010.8
20260504190002 71 202 8.0 16.0 0.00 0.00 0.00 31 1011.2
20260504184503 71 250 5.0 10.0 0.00 0.00 0.00 34 1011.3
20260504183007 70 238 6.0 13.0 0.00 0.00 0.00 34 1011.6
20260504181503 70 199 4.0 16.0 0.00 0.00 0.00 34 1011.8
20260504180003 70 224 3.0 13.0 0.00 0.00 0.00 35 1011.8
20260504174507 70 266 4.0 14.0 0.00 0.00 0.00 35 1012.1
20260504173003 69 266 6.0 15.0 0.00 0.00 0.00 33 1012.3
20260504171502 69 306 5.0 15.0 0.00 0.00 0.00 35 1012.5
20260504081510 44 243 0.0 5.0 0.00 0.00 0.00 65 1015.0